STARLINK-33613 (63286 NORAD) Tracking and Keplerian Element Data

This shows tracking and keplerian element data for the satellite.

Feedback or suggestion? Click here.




ElementValue
Catalog63286
NameSTARLINK-33613
Epoch Orbit4400
Epoch Day353.99782203
Epoch Year2025
RAAN332.0113
Inclination43.0031
Eccentricity0.0001326
Argument of Perigee153.2007
Mean Anonmoly206.8914
Mean Motion15.276032
Decay Rate0.00011721
L11 63286U 25053X 25353.99782203 .00011721 00000+0 43448-3 0 9995
L22 63286 43.0031 332.0113 0001326 153.2007 206.8914 15.27603200 44005



Live tracking and technical data element details for STARLINK-33613 (NORAD 63286). STARLINK-33613 can be tracked NOW for your location showing map with azimuth and elevation plus other details from your city location.







IsCatalogInMostPopularTable: catalog: 63286, numindb: 2
Update: records affected: 1



GetName: 63286 STARLINK-33613

Hit Count: updated at: Sun, 08 Feb 2026 09:03:55 GMT